Realtime Insider Trading Report - all trades (page 3 of 4)

Insider all trades reported on April 17, 2019


Buys only Buys & sales       Page:  1   2   3   4 

Note: B: Buy;   S: Sale;   O: Option Exercise.

Company Shares Price   Value($)   Time  
Flowserve Corp O 678.000 17:37:14
Shake Shack Inc. S 6,04260.03362,725 17:44:30
S 59,02659.823,530,699 17:44:30
Cadence Design Systems Inc O 40,00014.22568,800 18:02:05
S 40,00064.982,599,200 18:02:05
Instructure Inc S 5,00048.00240,000 18:11:18
O 5,00011.2556,250 18:11:18
Extra Space Storage Inc. S 440101.5244,666 18:19:19
S 440100.1644,070 18:19:19
Hewlett Packard Enterprise Co O 537,1028.624,629,819 18:22:10
O 54,1748.62466,979 18:22:10
S 54,17416.50893,871 18:22:10
S 537,10216.518,865,942 18:22:10
Black Stone Minerals, L.p. S 6,55717.41114,124 18:28:31
S 7,92617.43138,181 18:28:31
S 18,79917.48328,681 18:28:31
Shutterfly Inc S 94140.4638,072 18:29:10
O 3,081.000 18:29:10
Workday, Inc. S 14,910193.292,881,998 18:29:41
Apple Inc O 6,917.000 18:33:00
Corvel Corp S 3,83168.22261,343 18:33:17
S 2,00468.44137,149 18:33:17
S 20068.3413,668 18:33:17
Pennymac Financial Services, Inc. S 5,00022.69113,450 18:34:07
S 5,00022.71113,550 18:34:07
Apple Inc O 23,970.000 18:34:15
Lgi Homes, Inc. S 13,17068.11897,008 18:34:47
Workday, Inc. S 4,098193.47792,835 18:35:16
Wayfair Inc. O 3,000.000 18:41:22
S 1,373145.00199,085 18:41:22
Twilio Inc S 937125.50117,593 18:42:21
Wayfair Inc. S 26,000147.473,834,167 18:44:10
Workday, Inc. S 11,407193.432,206,398 18:45:19
Chemocentryx, Inc. S 33,00012.96427,713 18:46:12
O 33,0002.1069,300 18:46:12
Wayfair Inc. S 6,290145.00912,050 18:46:16
O 13,750.000 18:46:16
O 3,000.000 18:48:06
S 1,373145.00199,085 18:48:06
S 66145.009,570 18:49:34
S 1,373145.00199,085 18:51:54
O 3,000.000 18:51:54
S 1,830145.00265,350 18:54:02
O 4,000.000 18:54:02
Godaddy Inc. S 1,00079.1779,170 18:56:42
O 1,00031.2831,280 18:56:42
Wayfair Inc. S 26,000147.043,823,169 18:57:21
Pricesmart Inc S 87062.0854,008 18:57:42
Irobot Corp S 2,000130.00260,000 18:59:38
Trade Desk, Inc. S 25,000199.654,991,250 19:01:31
Zendesk, Inc. O 3,5881.906,831 19:01:40
S 2,50083.67209,177 19:01:40
Workday, Inc. S 1,124192.95216,875 19:03:22
Vmware, Inc. O 30,00072.792,183,700 19:03:44
S 30,000191.975,759,100 19:03:44
Zendesk, Inc. O 2,721.000 19:03:58
Skechers Usa Inc S 29,76935.001,041,915 19:09:28
Zendesk, Inc. O 4,208.000 19:11:54
Workday, Inc. S 4,347193.40840,709 19:13:37
Zendesk, Inc. O 4,142.000 19:14:09
Ringcentral Inc S 1,326106.51141,228 19:15:22
S 1,326104.67138,788 19:15:22
Guardant Health, Inc. S 81,77273.906,042,950 19:16:13
O 81,7724.18341,806 19:16:13
Zendesk, Inc. O 1,421.000 19:16:59
Quanta Services Inc S 100,00040.004,000,000 19:18:00
Workday, Inc. S 11,979193.802,321,494 19:18:06
S 11,829195.812,316,201 19:18:06
Zendesk, Inc. O 2,259.000 19:19:03
Stitch Fix, Inc. S 25,00026.22655,400 19:21:12
S 33,33326.53884,191 19:21:18
S 33,33325.96865,391 19:21:18
S 33,33426.19872,917 19:21:18
Zendesk, Inc. O 1,778.000 19:22:33
Workday, Inc. S 17,250193.363,335,460 19:22:55
S 10,078193.321,948,268 19:29:37
S 11,991195.442,343,580 19:29:37
Ionis Pharmaceuticals Inc O 11,00012.76140,305 19:30:59
O 21,00026.31552,573 19:30:59
S 11,00085.25937,750 19:30:59
S 21,00084.701,778,763 19:30:59
Forty Seven, Inc. S 25,00018.30457,500 19:35:43
Si-bone, Inc. O 2,5184.3210,877 19:40:09
S 3,01216.7450,414 19:40:09
S 24116.593,998 19:41:52
S 15116.592,505 19:43:05
Ballantyne Strong, Inc. B 6,5742.0213,266 19:43:38
B 6,5742.0613,562 19:43:38
B 6,5742.0713,614 19:43:38
Si-bone, Inc. S 1,42716.7923,952 19:45:10
O 1,0004.324,320 19:45:10
Vocera Communications, Inc. O 5,0009.0145,050 19:45:20
S 7,67830.98237,864 19:45:20
Smartsheet Inc S 8,35040.69339,786 19:46:23
S 8,35040.77340,462 19:46:23
Si-bone, Inc. S 10,00016.95169,460 19:46:53
Varian Medical Systems Inc O 6,39076.50488,815 19:51:40
O 4,888112.82551,464 19:51:40
S 8,371141.011,180,428 19:51:40
S 4,888142.00694,096 19:51:40
Note: B: Buy;   S: Sale;   O: Option Exercise.

Page:  1   2   3   4